Terminal Aerodrome Forecast
Issued by NWS Shreveport, LA

Home | Current Version | Previous Version | Text Only | Print | Product List | Glossary On
Versions: 1 2 3 4 5 6 7 8 9 10 11 12 13 14 15 16 17 18 19 20 21 22 23 24 25 26 27 28 29 30
000
FTUS44 KSHV 242340
TAFTYR
TAF
KTYR 242340Z 2500/2524 32007KT P6SM SCT008 OVC024
     FM250200 32006KT P6SM BKN050 BKN200
     FM250600 01005KT P6SM BKN200
     FM250900 03005KT 4SM BR SCT250
     FM251500 10008KT P6SM BKN120=

USA.gov is the U.S. government's official web portal to all federal, state and local government web resources and services.